GW3247 Weather Reports


time (UTC)temp
C
wind
direction
speed
KPH
gust
KPH
rain 1hr
cm
rain 24hr
cm
rain mn
cm
humidity
%
barometer
mb
20260901084555 16 288 14.5 20.9 0.00 1.78 0.23 88 1010.6
20260901083053 16 288 16.1 22.5 0.00 1.78 0.23 88 1010.6
20260901081553 16 304 19.3 22.5 0.00 1.78 0.23 89 1010.4
20260901080106 16 289 14.5 20.9 0.00 1.78 0.23 90 1010.1
20260901074547 16 294 14.5 20.9 0.00 1.78 0.23 90 1010.0
20260901073045 16 293 14.5 20.9 0.00 1.78 0.23 90 1009.9
20260901071542 16 300 17.7 22.5 0.00 1.78 0.23 91 1009.7
20260901070049 16 276 12.9 17.7 0.00 1.78 0.23 92 1009.5
20260901064536 15 290 11.3 17.7 0.00 1.78 0.23 93 1009.4
20260901063036 15 293 4.8 12.9 0.00 1.78 0.23 93 1009.4
20260901061533 15 256 1.6 8.0 0.00 1.78 0.23 93 1009.2
20260901060036 15 262 3.2 9.7 0.00 1.78 0.23 93 1009.1
20260901054528 15 287 1.6 9.7 0.00 1.78 0.23 93 1009.2
20260901053027 15 247 3.2 8.0 0.00 1.78 0.23 94 1009.1
20260901051526 15 239 1.6 6.4 0.00 1.78 0.23 94 1009.0
20260901050024 14 224 1.6 8.0 0.00 1.78 0.23 94 1009.0
20260901044525 14 218 4.8 8.0 0.00 1.78 0.23 93 1008.7
20260901043022 14 212 3.2 9.7 0.00 1.78 0.23 93 1008.6
20260901041521 14 216 1.6 6.4 0.00 1.78 0.23 93 1008.5
20260901040020 14 223 3.2 6.4 0.05 1.78 0.23 93 1008.4
20260901034522 14 221 1.6 6.4 0.15 1.78 0.23 93 1008.4
20260901033030 14 210 3.2 8.0 0.23 1.78 0.23 93 1008.3
20260901031522 14 217 3.2 8.0 0.23 1.78 0.23 93 1008.4
20260901030015 14 216 3.2 8.0 0.18 1.75 0.18 93 1008.3
20260901024515 14 247 3.2 9.7 0.05 1.60 0.05 92 1008.2
20260901023014 14 226 4.8 12.9 0.00 1.55 0.00 92 1008.3
20260901021523 14 198 6.4 11.3 0.00 1.55 0.00 93 1008.1
20260901020014 14 211 4.8 11.3 0.00 1.55 0.00 92 1008.1
20260901014511 14 208 3.2 8.0 0.00 1.55 0.00 92 1008.0
20260901013010 14 198 3.2 9.7 0.00 1.55 0.00 92 1007.9
20260901011512 14 220 4.8 9.7 0.00 1.55 0.00 92 1007.9
20260901010022 15 207 4.8 11.3 0.00 1.55 0.00 92 1007.9
20260901004505 15 214 4.8 9.7 0.00 1.55 0.00 92 1007.9
20260901003004 15 207 4.8 12.9 0.00 1.55 0.00 91 1007.8
20260901001503 15 184 4.8 9.7 0.00 1.55 0.00 91 1007.8
20260901000001 15 207 3.2 8.0 0.00 1.55 0.00 91 1007.7
20260831234501 15 204 3.2 8.0 0.00 1.55 0.00 91 1007.6
20260831233100 15 184 4.8 8.0 0.00 1.55 0.00 91 1007.7
20260831231610 15 233 4.8 9.7 0.00 1.55 0.00 91 1007.8
20260831230052 15 229 4.8 9.7 0.00 1.55 0.00 91 1007.7
20260831224547 15 230 1.6 12.9 0.00 1.55 0.00 91 1007.6
20260831223045 15 217 4.8 11.3 0.00 1.55 0.00 91 1007.7
20260831221544 15 245 3.2 11.3 0.00 1.55 0.00 91 1007.8
20260831220036 15 205 4.8 11.3 0.00 1.55 0.00 91 1007.8
20260831214535 15 225 4.8 11.3 0.00 1.55 1.55 91 1007.7
20260831213042 15 212 4.8 11.3 0.00 1.55 1.55 91 1007.6
20260831211535 15 190 4.8 11.3 0.00 1.55 1.55 91 1007.4
20260831210033 15 216 4.8 9.7 0.00 1.55 1.55 91 1007.4
20260831204534 15 230 3.2 9.7 0.00 1.55 1.55 91 1007.4
20260831203034 15 187 3.2 9.7 0.00 1.55 1.55 91 1007.3
20260831201537 15 223 3.2 8.0 0.00 1.55 1.55 91 1007.4
20260831200030 15 219 3.2 6.4 0.00 1.55 1.55 91 1007.2
20260831194557 15 210 1.6 4.8 0.00 1.55 1.55 91 1007.2
20260831193029 15 231 1.6 8.0 0.00 1.55 1.55 91 1007.3
20260831191528 15 198 1.6 6.4 0.00 1.55 1.55 91 1007.0
20260831190034 15 145 1.6 4.8 0.00 1.55 1.55 90 1006.9
20260831184526 15 150 0.0 4.8 0.00 1.55 1.55 90 1006.8
20260831183026 15 198 1.6 4.8 0.00 1.55 1.55 90 1006.8
20260831181525 16 209 1.6 4.8 0.00 1.55 1.55 90 1006.8
20260831180025 16 230 0.0 3.2 0.00 1.55 1.55 89 1006.8
20260831174534 16 230 0.0 3.2 0.00 1.55 1.55 89 1006.7
20260831173023 17 145 1.6 4.8 0.00 1.55 1.55 90 1006.6
20260831171530 17 142 0.0 4.8 0.03 1.55 1.55 91 1006.6
20260831170022 16 199 1.6 4.8 0.03 1.55 1.55 91 1006.5
20260831164521 16 208 1.6 3.2 0.03 1.55 1.55 91 1006.8
20260831163121 16 232 1.6 8.0 0.05 1.55 1.55 91 1006.8
20260831161520 16 238 1.6 4.8 0.03 1.55 1.55 92 1006.6
20260831160020 16 224 1.6 4.8 0.03 1.55 1.55 92 1006.3
20260831154527 16 197 4.8 12.9 0.03 1.55 1.55 91 1006.5
20260831153021 17 226 1.6 12.9 0.00 1.55 1.52 93 1006.4
20260831151517 17 231 3.2 8.0 0.00 1.55 1.52 93 1006.5
20260831150016 17 145 0.0 6.4 0.00 1.55 1.52 93 1006.4
20260831144515 17 136 3.2 8.0 0.00 1.55 1.52 93 1006.6
20260831143015 17 145 4.8 9.7 0.05 1.55 1.52 94 1006.6
20260831141516 16 91 6.4 12.9 0.71 1.55 1.52 93 1006.6
20260831140013 16 96 8.0 14.5 0.71 1.55 1.52 93 1006.8
20260831134513 16 118 9.7 14.5 1.09 1.55 1.52 93 1006.8
20260831133012 16 118 3.2 11.3 0.97 1.42 1.37 93 1006.6
20260831131515 16 63 3.2 16.1 0.41 0.86 0.81 93 1006.6
20260831130008 17 162 9.7 14.5 0.36 0.81 0.79 93 1006.7
20260831124509 17 116 9.7 17.7 0.00 0.99 0.43 93 1006.5
20260831123007 17 111 9.7 19.3 0.00 0.99 0.43 92 1006.4
20260831121506 17 127 11.3 16.1 0.00 0.99 0.43 92 1006.6
20260831120006 17 138 6.4 14.5 0.15 0.99 0.43 93 1006.9
20260831114509 17 129 6.4 11.3 0.36 1.09 0.43 93 1006.8
20260831113005 16 128 6.4 9.7 0.36 1.09 0.43 93 1006.8
20260831111503 16 150 8.0 27.4 0.36 1.09 0.43 90 1007.1
20260831110002 17 189 9.7 22.5 0.18 0.91 0.23 87 1007.4
20260831104503 17 141 8.0 20.9 0.00 0.71 0.05 87 1007.0
20260831103000 18 136 12.9 20.9 0.00 0.71 0.05 88 1007.0
20260831101558 17 162 9.7 19.3 0.00 0.71 0.05 90 1007.0
20260831100117 17 150 9.7 17.7 0.00 0.71 0.05 90 1007.2
20260831094554 17 115 9.7 17.7 0.00 0.71 0.05 90 1007.2
20260831093054 16 150 12.9 22.5 0.03 0.71 0.05 90 1007.5
20260831091556 16 154 8.0 17.7 0.05 0.71 0.05 90 1007.7
20260831090049 16 143 6.4 14.5 0.05 0.71 0.05 90 1007.8